STARLINK-36072 (66856 NORAD) Tracking and Keplerian Element Data

This shows tracking and keplerian element data for the satellite.

Feedback or suggestion? Click here.




ElementValue
Catalog66856
NameSTARLINK-36072
Epoch Orbit260
Epoch Day354.25003472
Epoch Year2025
RAAN76.3524
Inclination43.0008
Eccentricity9.32E-05
Argument of Perigee259.8753
Mean Anonmoly241.6694
Mean Motion15.75417788
Decay Rate-0.01717873
L11 66856U 25281J 25354.25003472 -.01717873 00000+0 -12465-1 0 9995
L22 66856 43.0008 76.3524 0000932 259.8753 241.6694 15.75417788 2601



Live tracking and technical data element details for STARLINK-36072 (NORAD 66856). STARLINK-36072 can be tracked NOW for your location showing map with azimuth and elevation plus other details from your city location.







IsCatalogInMostPopularTable: catalog: 66856, numindb: 20
Update: records affected: 1



GetName: 66856 STARLINK-36072

Hit Count: updated at: Tue, 21 Apr 2026 19:11:41 GMT